Location: ???????
(55.3754°N, 39.3545°E)
Time: 09:31:15
(UTC+00:00)

Helios 1B rocket - Pass Details

Date: 14 April 2026
Orbit: 463 x 468 km, 98.2° (Epoch: 9 May)

Event Time Altitude Azimuth Distance (km) Brightness Sun altitude
Exits shadow 18:22:46 14° 78° (ENE) 1,399 4.1 -15.0°
Maximum altitude 18:23:49 16° 56° (ENE) 1,318 4.1 -15.1°
Drops below altitude 10° 18:26:01 10° 18° (NNE) 1,646 5.1 -15.3°
Sets 18:28:40 0° 356° (N) 2,530 6.5 -15.6°
